Time,TemperatureF,DewpointF,PressureIn,WindDirection,WindDirectionDegrees,WindSpeedMPH,WindSpeedGustMPH,Humidity,HourlyPrecipIn,Conditions,Clouds,dailyrainin,SoftwareType,DateUTC
2013-07-19 00:13:00,79.5,74.0,29.93,SSW,210,0.0,-999.0,83,-99.99,,,0.00,weatherlink.com 1.10,2013-07-19 04:13:00,
2013-07-19 00:28:00,79.4,74.0,29.93,SSW,201,0.0,-999.0,83,-99.99,,,0.00,weatherlink.com 1.10,2013-07-19 04:28:00,
2013-07-19 00:43:00,79.1,74.0,29.93,SSW,200,0.0,-999.0,84,-99.99,,,0.00,weatherlink.com 1.10,2013-07-19 04:43:00,
2013-07-19 00:58:00,78.9,74.0,29.93,SSW,210,0.0,-999.0,84,-99.99,,,0.00,weatherlink.com 1.10,2013-07-19 04:58:00,
2013-07-19 01:13:00,78.6,74.0,29.93,SSW,209,0.0,-999.0,85,-99.99,,,0.00,weatherlink.com 1.10,2013-07-19 05:13:00,
2013-07-19 01:28:00,78.4,74.0,29.92,SSW,210,0.0,-999.0,85,-99.99,,,0.00,weatherlink.com 1.10,2013-07-19 05:28:00,
2013-07-19 01:43:00,78.2,73.0,29.92,SSW,210,4.0,-999.0,85,-99.99,,,0.00,weatherlink.com 1.10,2013-07-19 05:43:00,
2013-07-19 01:58:00,77.8,73.0,29.91,SSW,211,0.0,-999.0,86,-99.99,,,0.00,weatherlink.com 1.10,2013-07-19 05:58:00,
2013-07-19 02:14:00,77.6,73.0,29.91,SSW,211,0.0,-999.0,86,-99.99,,,0.00,weatherlink.com 1.10,2013-07-19 06:14:00,
2013-07-19 02:29:00,77.3,73.0,29.90,SSW,212,0.0,-999.0,87,-99.99,,,0.00,weatherlink.com 1.10,2013-07-19 06:29:00,
2013-07-19 02:44:00,77.1,73.0,29.90,SW,214,0.0,-999.0,87,-99.99,,,0.00,weatherlink.com 1.10,2013-07-19 06:44:00,
2013-07-19 02:59:00,76.9,73.0,29.90,SW,215,0.0,-999.0,88,-99.99,,,0.00,weatherlink.com 1.10,2013-07-19 06:59:00,
2013-07-19 03:14:00,76.6,73.0,29.89,SW,215,0.0,-999.0,88,-99.99,,,0.00,weatherlink.com 1.10,2013-07-19 07:14:00,
2013-07-19 03:29:00,76.2,73.0,29.88,SW,214,0.0,-999.0,89,-99.99,,,0.00,weatherlink.com 1.10,2013-07-19 07:29:00,
2013-07-19 03:44:00,76.0,73.0,29.88,SW,215,0.0,-999.0,89,-99.99,,,0.00,weatherlink.com 1.10,2013-07-19 07:44:00,
2013-07-19 03:59:00,75.9,73.0,29.88,SW,217,0.0,-999.0,90,-99.99,,,0.00,weatherlink.com 1.10,2013-07-19 07:59:00,
2013-07-19 04:14:00,75.9,73.0,29.88,SSW,209,0.0,-999.0,90,-99.99,,,0.00,weatherlink.com 1.10,2013-07-19 08:14:00,
2013-07-19 04:29:00,75.8,73.0,29.87,SSW,209,0.0,-999.0,90,-99.99,,,0.00,weatherlink.com 1.10,2013-07-19 08:29:00,
2013-07-19 04:44:00,75.8,73.0,29.87,SSW,210,4.0,-999.0,91,-99.99,,,0.00,weatherlink.com 1.10,2013-07-19 08:44:00,
2013-07-19 05:00:00,75.8,73.0,29.87,SSW,211,3.0,-999.0,91,-99.99,,,0.00,weatherlink.com 1.10,2013-07-19 09:00:00,
2013-07-19 05:15:00,75.6,73.0,29.87,SSW,211,4.0,-999.0,91,-99.99,,,0.00,weatherlink.com 1.10,2013-07-19 09:15:00,
2013-07-19 05:30:00,75.6,73.0,29.86,SSW,201,6.0,-999.0,91,-99.99,,,0.00,weatherlink.com 1.10,2013-07-19 09:30:00,
2013-07-19 05:45:00,75.5,73.0,29.86,SSW,203,0.0,-999.0,91,-99.99,,,0.00,weatherlink.com 1.10,2013-07-19 09:45:00,
2013-07-19 06:00:00,75.4,72.0,29.86,SSW,211,0.0,-999.0,90,-99.99,,,0.00,weatherlink.com 1.10,2013-07-19 10:00:00,
2013-07-19 06:15:00,75.3,73.0,29.87,SSW,209,0.0,-999.0,91,-99.99,,,0.00,weatherlink.com 1.10,2013-07-19 10:15:00,
2013-07-19 06:30:00,75.1,72.0,29.87,SSW,209,0.0,-999.0,91,-99.99,,,0.00,weatherlink.com 1.10,2013-07-19 10:30:00,
2013-07-19 06:45:00,75.0,72.0,29.87,SSW,209,0.0,-999.0,91,-99.99,,,0.00,weatherlink.com 1.10,2013-07-19 10:45:00,
2013-07-19 07:00:00,75.0,72.0,29.87,SSW,211,0.0,-999.0,91,-99.99,,,0.00,weatherlink.com 1.10,2013-07-19 11:00:00,
2013-07-19 07:15:00,75.2,73.0,29.87,SSW,211,2.0,-999.0,91,-99.99,,,0.00,weatherlink.com 1.10,2013-07-19 11:15:00,
2013-07-19 07:30:00,75.6,73.0,29.87,SW,214,0.0,-999.0,91,-99.99,,,0.00,weatherlink.com 1.10,2013-07-19 11:30:00,
2013-07-19 07:45:00,76.4,73.0,29.87,SW,215,0.0,-999.0,90,-99.99,,,0.00,weatherlink.com 1.10,2013-07-19 11:45:00,
2013-07-19 08:01:00,77.3,74.0,29.87,SW,217,0.0,-999.0,88,-99.99,,,0.00,weatherlink.com 1.10,2013-07-19 12:01:00,
2013-07-19 08:16:00,78.5,74.0,29.87,SW,216,0.0,-999.0,86,-99.99,,,0.00,weatherlink.com 1.10,2013-07-19 12:16:00,
2013-07-19 08:31:00,79.5,74.0,29.87,SW,227,4.0,-999.0,84,-99.99,,,0.00,weatherlink.com 1.10,2013-07-19 12:31:00,
2013-07-19 08:46:00,80.3,75.0,29.87,SSW,202,0.0,-999.0,83,-99.99,,,0.00,weatherlink.com 1.10,2013-07-19 12:46:00,
2013-07-19 09:01:00,81.4,75.0,29.87,SW,236,0.0,-999.0,81,-99.99,,,0.00,weatherlink.com 1.10,2013-07-19 13:01:00,
2013-07-19 09:16:00,82.3,75.0,29.88,SW,215,5.0,-999.0,78,-99.99,,,0.00,weatherlink.com 1.10,2013-07-19 13:16:00,
2013-07-19 09:31:00,82.7,75.0,29.88,SSW,212,2.0,-999.0,77,-99.99,,,0.00,weatherlink.com 1.10,2013-07-19 13:31:00,
2013-07-19 09:46:00,83.8,76.0,29.88,SW,226,3.0,-999.0,76,-99.99,,,0.00,weatherlink.com 1.10,2013-07-19 13:46:00,
2013-07-19 10:01:00,84.2,75.0,29.88,WSW,256,3.0,-999.0,73,-99.99,,,0.00,weatherlink.com 1.10,2013-07-19 14:01:00,
2013-07-19 10:16:00,85.2,75.0,29.88,West,260,3.0,-999.0,72,-99.99,,,0.00,weatherlink.com 1.10,2013-07-19 14:16:00,
2013-07-19 10:32:00,85.9,76.0,29.88,WSW,252,5.0,-999.0,71,-99.99,,,0.00,weatherlink.com 1.10,2013-07-19 14:32:00,
2013-07-19 10:47:00,86.8,76.0,29.87,SW,234,3.0,-999.0,71,-99.99,,,0.00,weatherlink.com 1.10,2013-07-19 14:47:00,
2013-07-19 11:02:00,87.9,76.0,29.87,WSW,239,0.0,-999.0,67,-99.99,,,0.00,weatherlink.com 1.10,2013-07-19 15:02:00,
2013-07-19 11:17:00,88.4,75.0,29.86,SW,223,13.0,-999.0,65,-99.99,,,0.00,weatherlink.com 1.10,2013-07-19 15:17:00,
2013-07-19 11:32:00,88.9,76.0,29.86,WSW,256,1.0,-999.0,66,-99.99,,,0.00,weatherlink.com 1.10,2013-07-19 15:32:00,
2013-07-19 11:47:00,89.7,76.0,29.86,SW,233,7.0,-999.0,64,-99.99,,,0.00,weatherlink.com 1.10,2013-07-19 15:47:00,
2013-07-19 12:02:00,89.9,75.0,29.86,West,265,0.0,-999.0,62,-99.99,,,0.00,weatherlink.com 1.10,2013-07-19 16:02:00,
2013-07-19 12:17:00,90.1,76.0,29.85,South,183,4.0,-999.0,63,-99.99,,,0.00,weatherlink.com 1.10,2013-07-19 16:17:00,
2013-07-19 12:32:00,90.7,76.0,29.84,WSW,240,1.0,-999.0,63,-99.99,,,0.00,weatherlink.com 1.10,2013-07-19 16:32:00,
2013-07-19 12:47:00,91.0,76.0,29.84,WSW,240,16.0,-999.0,61,-99.99,,,0.00,weatherlink.com 1.10,2013-07-19 16:47:00,
2013-07-19 13:03:00,91.9,76.0,29.84,WSW,240,14.0,-999.0,60,-99.99,,,0.00,weatherlink.com 1.10,2013-07-19 17:03:00,
2013-07-19 13:18:00,91.4,75.0,29.83,WSW,251,1.0,-999.0,59,-99.99,,,0.00,weatherlink.com 1.10,2013-07-19 17:18:00,
2013-07-19 13:33:00,91.7,75.0,29.82,SSW,207,14.0,-999.0,58,-99.99,,,0.00,weatherlink.com 1.10,2013-07-19 17:33:00,
2013-07-19 13:48:00,92.5,76.0,29.82,WSW,249,1.0,-999.0,58,-99.99,,,0.00,weatherlink.com 1.10,2013-07-19 17:48:00,
2013-07-19 14:03:00,92.2,76.0,29.81,SE,134,0.0,-999.0,60,-99.99,,,0.00,weatherlink.com 1.10,2013-07-19 18:03:00,
2013-07-19 14:18:00,92.4,75.0,29.81,South,191,1.0,-999.0,57,-99.99,,,0.00,weatherlink.com 1.10,2013-07-19 18:18:00,
2013-07-19 14:33:00,93.2,75.0,29.80,South,184,1.0,-999.0,56,-99.99,,,0.00,weatherlink.com 1.10,2013-07-19 18:33:00,
2013-07-19 14:48:00,93.9,75.0,29.79,SW,234,5.0,-999.0,54,-99.99,,,0.00,weatherlink.com 1.10,2013-07-19 18:48:00,
2013-07-19 15:03:00,93.2,75.0,29.79,SW,235,0.0,-999.0,55,-99.99,,,0.00,weatherlink.com 1.10,2013-07-19 19:03:00,
2013-07-19 15:18:00,93.7,75.0,29.78,SSW,203,1.0,-999.0,54,-99.99,,,0.00,weatherlink.com 1.10,2013-07-19 19:18:00,
2013-07-19 15:34:00,93.6,73.0,29.77,SW,223,3.0,-999.0,52,-99.99,,,0.00,weatherlink.com 1.10,2013-07-19 19:34:00,
2013-07-19 15:49:00,92.8,74.0,29.77,WSW,240,2.0,-999.0,55,-99.99,,,0.00,weatherlink.com 1.10,2013-07-19 19:49:00,
2013-07-19 16:04:00,93.7,75.0,29.76,West,280,10.0,-999.0,54,-99.99,,,0.00,weatherlink.com 1.10,2013-07-19 20:04:00,
2013-07-19 16:19:00,93.8,74.0,29.75,SSW,201,8.0,-999.0,53,-99.99,,,0.00,weatherlink.com 1.10,2013-07-19 20:19:00,
2013-07-19 16:34:00,93.9,74.0,29.75,WSW,255,20.0,-999.0,52,-99.99,,,0.00,weatherlink.com 1.10,2013-07-19 20:34:00,
2013-07-19 16:49:00,93.5,74.0,29.74,WSW,244,9.0,-999.0,53,-99.99,,,0.00,weatherlink.com 1.10,2013-07-19 20:49:00,
2013-07-19 17:04:00,94.6,74.0,29.75,SW,234,12.0,-999.0,52,-99.99,,,0.00,weatherlink.com 1.10,2013-07-19 21:04:00,
2013-07-19 17:19:00,94.4,74.0,29.74,SW,232,2.0,-999.0,52,-99.99,,,0.00,weatherlink.com 1.10,2013-07-19 21:19:00,
2013-07-19 17:34:00,94.4,75.0,29.74,WSW,246,11.0,-999.0,53,-99.99,,,0.00,weatherlink.com 1.10,2013-07-19 21:34:00,
2013-07-19 17:49:00,92.4,72.0,29.74,WSW,240,0.0,-999.0,51,-99.99,,,0.00,weatherlink.com 1.10,2013-07-19 21:49:00,
2013-07-19 18:04:00,92.1,74.0,29.73,SSW,209,0.0,-999.0,56,-99.99,,,0.00,weatherlink.com 1.10,2013-07-19 22:04:00,
2013-07-19 18:20:00,92.6,75.0,29.73,SW,236,1.0,-999.0,57,-99.99,,,0.00,weatherlink.com 1.10,2013-07-19 22:20:00,
2013-07-19 18:35:00,92.8,75.0,29.72,SSW,208,4.0,-999.0,57,-99.99,,,0.00,weatherlink.com 1.10,2013-07-19 22:35:00,
2013-07-19 18:50:00,92.1,75.0,29.72,WSW,246,2.0,-999.0,58,-99.99,,,0.00,weatherlink.com 1.10,2013-07-19 22:50:00,
2013-07-19 19:05:00,91.9,75.0,29.72,SW,233,4.0,-999.0,58,-99.99,,,0.00,weatherlink.com 1.10,2013-07-19 23:05:00,
2013-07-19 19:20:00,91.3,74.0,29.72,SW,219,1.0,-999.0,58,-99.99,,,0.00,weatherlink.com 1.10,2013-07-19 23:20:00,
2013-07-19 19:35:00,90.8,74.0,29.72,SSW,197,0.0,-999.0,59,-99.99,,,0.00,weatherlink.com 1.10,2013-07-19 23:35:00,
2013-07-19 19:50:00,90.4,75.0,29.72,SW,221,3.0,-999.0,60,-99.99,,,0.00,weatherlink.com 1.10,2013-07-19 23:50:00,
2013-07-19 20:05:00,89.3,75.0,29.73,SW,226,3.0,-999.0,62,-99.99,,,0.00,weatherlink.com 1.10,2013-07-20 00:05:00,
2013-07-19 20:20:00,88.8,74.0,29.73,SW,225,2.0,-999.0,62,-99.99,,,0.00,weatherlink.com 1.10,2013-07-20 00:20:00,
2013-07-19 20:35:00,88.0,74.0,29.73,WSW,247,0.0,-999.0,64,-99.99,,,0.00,weatherlink.com 1.10,2013-07-20 00:35:00,
2013-07-19 20:50:00,87.3,74.0,29.73,SW,225,0.0,-999.0,64,-99.99,,,0.00,weatherlink.com 1.10,2013-07-20 00:50:00,
2013-07-19 21:05:00,86.5,74.0,29.73,SW,228,0.0,-999.0,66,-99.99,,,0.00,weatherlink.com 1.10,2013-07-20 01:05:00,
2013-07-19 21:20:00,85.5,74.0,29.73,SW,227,0.0,-999.0,69,-99.99,,,0.00,weatherlink.com 1.10,2013-07-20 01:20:00,
2013-07-19 21:36:00,84.8,75.0,29.73,SW,219,0.0,-999.0,73,-99.99,,,0.00,weatherlink.com 1.10,2013-07-20 01:36:00,
2013-07-19 21:51:00,84.2,76.0,29.73,South,191,0.0,-999.0,75,-99.99,,,0.00,weatherlink.com 1.10,2013-07-20 01:51:00,
2013-07-19 22:06:00,83.8,75.0,29.73,South,185,2.0,-999.0,75,-99.99,,,0.00,weatherlink.com 1.10,2013-07-20 02:06:00,
2013-07-19 22:21:00,83.6,75.0,29.73,SW,230,1.0,-999.0,76,-99.99,,,0.00,weatherlink.com 1.10,2013-07-20 02:21:00,
2013-07-19 22:36:00,83.3,75.0,29.73,SW,217,2.0,-999.0,76,-99.99,,,0.00,weatherlink.com 1.10,2013-07-20 02:36:00,
2013-07-19 22:51:00,82.9,75.0,29.73,WSW,238,6.0,-999.0,77,-99.99,,,0.00,weatherlink.com 1.10,2013-07-20 02:51:00,
2013-07-19 23:06:00,82.6,75.0,29.73,SW,228,6.0,-999.0,77,-99.99,,,0.00,weatherlink.com 1.10,2013-07-20 03:06:00,
2013-07-19 23:21:00,82.3,75.0,29.73,SW,229,12.0,-999.0,78,-99.99,,,0.00,weatherlink.com 1.10,2013-07-20 03:21:00,
2013-07-19 23:36:00,82.0,75.0,29.74,WSW,246,1.0,-999.0,79,-99.99,,,0.00,weatherlink.com 1.10,2013-07-20 03:36:00,
2013-07-19 23:51:00,81.7,75.0,29.74,SW,231,6.0,-999.0,79,-99.99,,,0.00,weatherlink.com 1.10,2013-07-20 03:51:00,